星链-31992 (STARLINK-31992 )

导读

STARLINK-31992是美国SpaceX星链星座的卫星,于北京时间2024年6月8日发射入轨,属于星链低轨互联网星座组网卫星。星链项目旨在构建全球卫星互联网通信系统,该卫星服役后为提供全球覆盖的宽带互联网服务补充星座容量,持续推进星链星座的部署与服务拓展。

基本信息
目录编号:
60023
目录名称:
STARLINK-31992
国际标识:
2024-111H
轨道中心:
EARTH
卫星名称:
星链-31992
卫星全名:
星链-31992 (STARLINK-31992 )
卫星状态:
在轨 (已飞行818 天)
发射日期:
2024-06-08 UTC
国别 :
美国 (US)
星等 :
--
轨道信息
数据来源 国际轨道数据
星历时间: 2026-09-03T12:52:43+0800
1天前
查看轨道信息
半长轴: 6840.856km
偏心率: 0.0001079
轨道倾角: 53.161°
近地点辐角 81.597°
升交点赤经 330.249°
平近点角 278.515°
近地点: 461.98km
远地点: 463.458km
周期: 93.848分钟
每日圈数: 15.343948
详细信息
固有亮度:
5
最大亮度:
1.5
卫星平台:
Starlink v2.0 mini
覆盖范围:
全球
运营商:
太空探索技术公司
运营商所在国:
美国
制造商(研发单位):
太空探索技术公司
制造商所在国:
美国
使用方式:
暂无
卫星简介
星链(Starlink)计划是由太空探索技术公司(SpaceX)提出的一个巨型低轨卫星互联网星座项目,计划在2019年至2024年间在太空搭建由约1.2万颗卫星组成的“星链”网络,其中1584颗将部署在地球上空550千米处的近地轨道,并从2020年开始工作。该卫星仍在工作。
2D轨道图
3D轨道图
轨道高度分析图
轨道倾角分析图
轨道综合分析图
查看轨道综合分析图